Retour au catalogue

THORAD AGENA D DEB

ActifSSO
NORAD 4864·DEBRIS·🇺🇸 United States

Lancé Apr 8, 1970 depuis Vandenberg Space Force Base

Loading…

Prochains Passages (prochaines 24 heures)

TLE

FraisSource: Space-Track

Époque: Sep 13, 2026, 06:02 UTC

1  4864U 70025EU  26256.25200655  .00000048  00000-0  14225-3 0  9991
2  4864  99.5322   7.5203 0045627 266.4722 123.0336 13.49545226772830

Suivez THORAD AGENA D DEB en temps réel avec AllMySat

Download on the App Store